Time,TemperatureF,DewpointF,PressureIn,WindDirection,WindDirectionDegrees,WindSpeedMPH,WindSpeedGustMPH,Humidity,HourlyPrecipIn,Conditions,Clouds,dailyrainin,SoftwareType,DateUTC
2013-09-27 00:04:00,69.0,68.0,29.93,East,82,0.0,0.0,96,0.00,,,0.05,,2013-09-27 05:04:00,
2013-09-27 00:23:00,68.0,67.0,29.93,East,82,0.0,0.0,96,0.00,,,0.04,,2013-09-27 05:23:00,
2013-09-27 00:52:00,68.0,67.0,29.92,East,82,0.0,0.0,96,0.00,,,0.04,,2013-09-27 05:52:00,
2013-09-27 01:11:00,68.0,67.0,29.93,East,82,0.0,0.0,97,0.00,,,0.04,,2013-09-27 06:11:00,
2013-09-27 01:22:00,68.0,67.0,29.93,East,82,0.0,0.0,97,0.00,,,0.04,,2013-09-27 06:22:00,
2013-09-27 01:32:00,68.0,67.0,29.93,East,82,0.0,0.0,97,0.00,,,0.04,,2013-09-27 06:32:00,
2013-09-27 01:52:00,67.0,66.0,29.93,East,82,0.0,0.0,97,0.00,,,0.04,,2013-09-27 06:52:00,
2013-09-27 02:12:00,67.0,66.0,29.93,East,82,0.0,0.0,97,0.00,,,0.04,,2013-09-27 07:12:00,
2013-09-27 02:22:00,67.0,66.0,29.93,East,82,0.0,0.0,97,0.00,,,0.04,,2013-09-27 07:22:00,
2013-09-27 02:32:00,67.0,66.0,29.93,East,82,0.0,0.0,97,0.00,,,0.04,,2013-09-27 07:32:00,
2013-09-27 02:53:00,66.0,65.0,29.93,East,82,0.0,0.0,98,0.00,,,0.04,,2013-09-27 07:53:00,
2013-09-27 03:22:00,66.0,65.0,29.93,East,82,0.0,0.0,98,0.01,,,0.05,,2013-09-27 08:22:00,
2013-09-27 03:52:00,65.0,64.0,29.93,East,82,0.0,0.0,98,0.01,,,0.05,,2013-09-27 08:52:00,
2013-09-27 04:22:00,65.0,64.0,29.93,East,82,0.0,0.0,98,0.00,,,0.05,,2013-09-27 09:22:00,
2013-09-27 04:53:00,65.0,64.0,29.93,East,82,0.0,0.0,98,0.00,,,0.05,,2013-09-27 09:53:00,
2013-09-27 05:13:00,65.0,64.0,29.94,East,82,0.0,0.0,98,0.00,,,0.05,,2013-09-27 10:13:00,
2013-09-27 05:23:00,65.0,64.0,29.94,East,82,0.0,0.0,98,0.00,,,0.05,,2013-09-27 10:23:00,
2013-09-27 05:53:00,64.0,63.0,29.95,East,82,0.0,0.0,98,0.00,,,0.05,,2013-09-27 10:53:00,
2013-09-27 06:03:00,64.0,63.0,29.95,East,82,0.0,0.0,98,0.00,,,0.05,,2013-09-27 11:03:00,
2013-09-27 06:10:00,64.0,63.0,29.97,East,82,0.0,0.0,98,0.00,,,0.04,,2013-09-27 11:10:00,
2013-09-27 06:12:00,64.0,63.0,29.95,East,82,0.0,0.0,98,0.00,,,0.05,,2013-09-27 11:12:00,
2013-09-27 06:22:00,64.0,63.0,29.95,East,82,0.0,0.0,98,0.00,,,0.05,,2013-09-27 11:22:00,
2013-09-27 06:52:00,64.0,63.0,29.97,East,82,0.0,0.0,98,0.00,,,0.04,,2013-09-27 11:52:00,
2013-09-27 07:02:00,64.0,63.0,29.97,East,82,0.0,0.0,98,0.00,,,0.04,,2013-09-27 12:02:00,
2013-09-27 07:50:00,67.0,67.0,30.00,East,82,0.0,0.0,99,0.00,,,0.04,,2013-09-27 12:50:00,
2013-09-27 07:52:00,65.0,65.0,29.99,East,82,0.0,0.0,99,0.00,,,0.04,,2013-09-27 12:52:00,
2013-09-27 08:22:00,67.0,67.0,30.00,East,82,0.0,0.0,99,0.00,,,0.04,,2013-09-27 13:22:00,
2013-09-27 08:32:00,67.0,67.0,30.00,East,82,0.0,0.0,99,0.00,,,0.04,,2013-09-27 13:32:00,
2013-09-27 09:22:00,75.0,71.0,30.00,East,82,0.0,0.0,86,0.00,,,0.04,,2013-09-27 14:22:00,
2013-09-27 09:32:00,75.0,71.0,30.00,East,82,0.0,0.0,86,0.00,,,0.04,,2013-09-27 14:32:00,
2013-09-27 09:52:00,79.0,71.0,29.99,ENE,62,0.0,3.0,77,0.01,,,0.05,,2013-09-27 14:52:00,
2013-09-27 10:02:00,79.0,71.0,29.99,ENE,62,0.0,3.0,77,0.01,,,0.05,,2013-09-27 15:02:00,
2013-09-27 10:21:00,82.0,72.0,29.98,North,0,0.0,3.0,71,0.01,,,0.05,,2013-09-27 15:21:00,
2013-09-27 10:33:00,82.0,72.0,29.98,North,0,0.0,3.0,71,0.01,,,0.05,,2013-09-27 15:33:00,
2013-09-27 10:54:00,85.0,72.0,29.97,NNE,30,0.0,2.0,65,0.00,,,0.05,,2013-09-27 15:54:00,
2013-09-27 11:04:00,85.0,72.0,29.97,NNE,30,0.0,2.0,65,0.00,,,0.05,,2013-09-27 16:04:00,
2013-09-27 11:24:00,86.0,71.0,29.97,South,174,0.0,3.0,62,0.00,,,0.04,,2013-09-27 16:24:00,
2013-09-27 11:53:00,87.0,70.0,29.96,ENE,73,1.0,5.0,57,0.00,,,0.04,,2013-09-27 16:53:00,
2013-09-27 12:03:00,87.0,70.0,29.96,ENE,73,1.0,5.0,57,0.00,,,0.04,,2013-09-27 17:03:00,
2013-09-27 12:23:00,88.0,68.0,29.94,ESE,114,0.0,6.0,52,0.00,,,0.04,,2013-09-27 17:23:00,
2013-09-27 12:34:00,88.0,68.0,29.94,ESE,114,0.0,6.0,52,0.00,,,0.04,,2013-09-27 17:34:00,
2013-09-27 12:52:00,88.0,69.0,29.93,SSE,160,2.0,6.0,53,0.00,,,0.04,,2013-09-27 17:52:00,
2013-09-27 13:02:00,88.0,69.0,29.93,SSE,160,2.0,6.0,53,0.00,,,0.04,,2013-09-27 18:02:00,
2013-09-27 13:21:00,90.0,69.0,29.91,ENE,78,0.0,1.0,50,0.00,,,0.04,,2013-09-27 18:21:00,
2013-09-27 13:33:00,90.0,69.0,29.91,ENE,78,0.0,1.0,50,0.00,,,0.04,,2013-09-27 18:33:00,
2013-09-27 13:52:00,89.0,67.0,29.90,SE,134,2.0,7.0,49,0.00,,,0.04,,2013-09-27 18:52:00,
2013-09-27 14:12:00,90.0,69.0,29.89,NNE,23,0.0,3.0,51,0.00,,,0.04,,2013-09-27 19:12:00,
2013-09-27 14:22:00,90.0,69.0,29.89,NNE,23,0.0,3.0,51,0.00,,,0.04,,2013-09-27 19:22:00,
2013-09-27 14:32:00,90.0,69.0,29.89,NNE,23,0.0,3.0,51,0.00,,,0.04,,2013-09-27 19:32:00,
2013-09-27 14:53:00,90.0,65.0,29.88,NE,40,0.0,7.0,44,0.01,,,0.05,,2013-09-27 19:53:00,
2013-09-27 15:03:00,90.0,65.0,29.88,NE,40,0.0,7.0,44,0.01,,,0.05,,2013-09-27 20:03:00,
2013-09-27 15:10:00,91.0,68.0,29.86,SSE,159,4.0,8.0,47,0.01,,,0.05,,2013-09-27 20:10:00,
2013-09-27 15:22:00,89.0,67.0,29.87,SE,135,2.0,8.0,48,0.01,,,0.05,,2013-09-27 20:22:00,
2013-09-27 15:52:00,91.0,68.0,29.86,SSE,159,4.0,8.0,47,0.01,,,0.05,,2013-09-27 20:52:00,
2013-09-27 16:02:00,91.0,68.0,29.86,SSE,159,4.0,8.0,47,0.01,,,0.05,,2013-09-27 21:02:00,